Regional Weather Roundup
Issued by NWS Northern Indiana

Home | Current Version | Previous Version | Text Only | Print | Product List | Glossary On
Versions: 1 2 3 4 5 6 7 8 9 10 11 12 13 14 15 16 17 18 19 20 21 22 23 24 25 26 27 28 29 30 31 32 33 34 35 36 37 38 39 40 41 42 43 44 45 46 47 48 49 50
466
ASUS43 KIWX 300610
RWRIWX

KIWX WEATHER ROUNDUP
NATIONAL WEATHER SERVICE NORTHERN INDIANA
200 AM EDT SUN APR 30 2017

NOTE: "FAIR" INDICATES FEW OR NO CLOUDS BELOW 12,000 FEET WITH NO
SIGNIFICANT WEATHER AND/OR OBSTRUCTIONS TO VISIBILITY.

* THESE STATIONS ARE NOT UNDER NWS QUALITY CONTROL. THEY ALSO MAY NOT
  REPORT WEATHER SUCH AS PRECIPITATION OR FOG.

INZ001>027-300700-
NORTHERN INDIANA

CITY           SKY/WX    TMP DP  RH WIND       PRES   REMARKS
GARY*          CLOUDY    48  46  91 NE10      29.93F
VALPARAISO     CLOUDY    47  44  90 E16       29.91F FOG
6HR MIN TEMP:  47; 6HR MAX TEMP:  51; 6HR PCP:  0.46;

MICHIGAN CITY* CLOUDY    45  43  93 E8G18     29.94F
LAPORTE*       CLOUDY    45  42  89 E13       29.94F
KNOX*          CLOUDY    45  32  61 E9        29.93S
SOUTH BEND     LGT RAIN  43  40  89 E15G21    29.96F
6HR MIN TEMP:  43; 6HR MAX TEMP:  51; 6HR PCP:  0.23;

GOSHEN         CLOUDY    44  38  79 E16       29.95F
6HR MIN TEMP:  43; 6HR MAX TEMP:  50; 6HR PCP:  0.39;

MONTICELLO*    CLOUDY    51  50  95 E9        29.87S
6HR MIN TEMP:  49; 6HR MAX TEMP:  51; 6HR PCP:  0.38;

LOGANSPORT*    CLOUDY    50  50 100 E14       29.90F
ROCHESTER*     CLOUDY    50  48  93 E15G21    29.91F
WARSAW*        CLOUDY    45  43  93 E17       29.93F
ANGOLA*        MOCLDY    41  30  65 E16       30.00F
FORT WAYNE     CLOUDY    45  42  89 E17       29.99F
6HR MIN TEMP:  45; 6HR MAX TEMP:  48; 6HR PCP:  0.54;

HUNTINGTON*    CLOUDY   N/A N/A N/A E13G18    29.97F
                                      6HR PCP:  0.56;

PERU/GRISSOM   CLOUDY    50  50 100 E14G21    29.90S
6HR MIN TEMP:  48; 6HR MAX TEMP:  51; 6HR PCP:  0.50;

MARION*        LGT RAIN  46  46 100 E17G23    29.94F

$$
INZ028>050-300700-
CENTRAL INDIANA

CITY           SKY/WX    TMP DP  RH WIND       PRES   REMARKS
LAFAYETTE      CLOUDY    55  55 100 SE6       29.86F
6HR MIN TEMP:  51; 6HR MAX TEMP:  55; 6HR PCP:  0.66;

KOKOMO*        CLOUDY    50  48  93 E17       29.91F
6HR MIN TEMP:  48; 6HR MAX TEMP:  52; 6HR PCP:  0.94;

MUNCIE*        CLOUDY    49  46  90 E10       29.96F
6HR MIN TEMP:  49; 6HR MAX TEMP:  54; 6HR PCP:  1.14;

INDIANAPOLIS   CLOUDY    59  58  96 E12       29.90F
6HR MIN TEMP:  58; 6HR MAX TEMP:  66; 6HR PCP:  0.74;


$$
MIZ043>046-050>051-056>058-064>065-071>073-077>080-300700-
SOUTHWEST LOWER MICHIGAN

CITY           SKY/WX    TMP DP  RH WIND       PRES   REMARKS
BATTLE CREEK   CLOUDY    42  38  85 E8G18     30.07F
6HR MIN TEMP:  42; 6HR MAX TEMP:  50; 6HR PCP:  0.21;

BENTON HARBOR  CLOUDY    46  37  71 E23G35    29.96F
6HR MIN TEMP:  46; 6HR MAX TEMP:  49; 6HR PCP:  0.45;

COLDWATER*     LGT RAIN  41  38  89 E13G23    30.01F
6HR MIN TEMP:  41; 6HR MAX TEMP:  49;

HILLSDALE*     RAIN      39  36  87 E12       30.06F
HOLLAND        LGT RAIN  42  38  85 E22G32    30.02F
6HR MIN TEMP:  42; 6HR MAX TEMP:  48; 6HR PCP:  0.56;

GRAND RAPIDS   RAIN      40  40 100 E23G31    30.07F FOG
6HR MIN TEMP:  40; 6HR MAX TEMP:  47; 6HR PCP:  0.61;

KALAMAZOO      CLOUDY    43  37  79 E12G23    30.02F
6HR MIN TEMP:  43; 6HR MAX TEMP:  50; 6HR PCP:  0.24;

STURGIS*       CLOUDY    41  38  88 E15G23    29.99S
6HR MIN TEMP:  41; 6HR MAX TEMP:  49; 6HR PCP:  0.38;

THREE RIVERS*  CLOUDY    42  38  86 E15G23    30.00F

$$
OHZ001>008-015>018-024>025-300700-
NORTHWEST OHIO

CITY           SKY/WX    TMP DP  RH WIND       PRES   REMARKS
WAUSEON*       HVY RAIN  41  41 100 NW6G16    30.13F VSB 1
DEFIANCE       LGT RAIN  41  40  96 NE10      30.06F FOG
6HR MIN TEMP:  41; 6HR MAX TEMP:  46; 6HR PCP:  0.77;

FINDLAY        LGT RAIN  47  42  83 W10G22    30.11R
6HR MIN TEMP:  46; 6HR MAX TEMP:  47; 6HR PCP:  0.15;

TOLEDO EXPRESS LGT RAIN  44  42  93 N8        30.10R
6HR MIN TEMP:  43; 6HR MAX TEMP:  46; 6HR PCP:  0.16;

TOLEDO METCALF CLOUDY    48  42  80 E14G24    30.04F
6HR MIN TEMP:  46; 6HR MAX TEMP:  48; 6HR PCP: TRACE;

LIMA           LGT RAIN  46  46 100 N10       30.05F
6HR MIN TEMP:  45; 6HR MAX TEMP:  47; 6HR PCP:  0.34;


$$
AND FOR LAKE MICHIGAN COASTAL AND OPEN LAKE BUOY OBSERVATIONS

STATION/POSITION TEMP    WIND        PRES    VSBY  WAVE
                 AIR SEA DIR/SP/G                  HT/PER
                 (F)     (DEG/KT/KT) (MB)    (MI)  (FT/S)
CALUMET HARBOR    46      50/ 19/ 22 1012.9F
MICHIGAN CITY     46      90/ 17/ 21   N/A
BURNS HARBOR      47      90/ 14/ 20 1013.2F
SOUTH LAKE BUOY   42 41   60/ 25/ 31 1016.0F         6/ 6
4 MI NW BRIDGMAN  47 47  130/ 23/ 31 1014.4          6/ 6
MICHIGAN CITY     47 47                N/A           6/ 6

$$
&&




USA.gov is the U.S. government's official web portal to all federal, state and local government web resources and services.